• In Hungary
  • List of Countries
  • For 7 days
  • Water Temperature
  • Satellite Maps
  • Weather Map
  • News
  • Weather Widgets
  • user-avatar
    Login

    Hourly Weather Velikooktyabrskiy

    Today, 20 May, Sunday

    Time Temperature Precipitation Wind Pressure Humidity
    00:00 +7°C° 0.1 mm 3 mps 744 mmHg 81%
    01:00 +7°C° 0.1 mm 3 mps 744 mmHg 81%
    02:00 +5°C° 0 mm 3 mps 744 mmHg 84%
    03:00 +5°C° 0.3 mm 3 mps 744 mmHg 85%
    04:00 +5°C° 0.3 mm 3 mps 745 mmHg 85%
    05:00 +5°C° 0.3 mm 3 mps 745 mmHg 86%
    06:00 +7°C° 0 mm 3 mps 746 mmHg 80%
    07:00 +8°C° 0 mm 3 mps 746 mmHg 74%
    08:00 +8°C° 0 mm 4 mps 747 mmHg 62%
    09:00 +11°C° 0 mm 4 mps 747 mmHg 55%
    10:00 +12°C° 0 mm 4 mps 748 mmHg 47%
    11:00 +14°C° 0 mm 4 mps 748 mmHg 40%
    12:00 +15°C° 0 mm 4 mps 748 mmHg 38%
    13:00 +17°C° 0 mm 4 mps 748 mmHg 36%
    14:00 +17°C° 0 mm 4 mps 748 mmHg 34%
    15:00 +17°C° 0 mm 3 mps 748 mmHg 36%
    16:00 +17°C° 0 mm 3 mps 749 mmHg 37%
    17:00 +17°C° 0 mm 3 mps 749 mmHg 39%
    18:00 +15°C° 0 mm 2 mps 749 mmHg 48%
    19:00 +13°C° 0 mm 2 mps 749 mmHg 56%
    20:00 +11°C° 0 mm 1 mps 749 mmHg 65%
    21:00 +10°C° 0 mm 1 mps 750 mmHg 67%
    22:00 +10°C° 0 mm 1 mps 750 mmHg 69%
    23:00 +9°C° 0 mm 1 mps 751 mmHg 71%

    Tomorrow, 21 May, Monday

    Time Temperature Precipitation Wind Pressure Humidity
    00:00 +8°C° 0 mm 1 mps 751 mmHg 72%
    01:00 +8°C° 0 mm 1 mps 751 mmHg 74%
    02:00 +7°C° 0 mm 1 mps 752 mmHg 75%
    03:00 +8°C° 0 mm 1 mps 752 mmHg 74%
    04:00 +9°C° 0 mm 1 mps 752 mmHg 73%
    05:00 +9°C° 0 mm 1 mps 753 mmHg 72%
    06:00 +12°C° 0 mm 1 mps 753 mmHg 63%
    07:00 +14°C° 0 mm 1 mps 753 mmHg 55%
    08:00 +18°C° 0 mm 1 mps 754 mmHg 47%
    09:00 +19°C° 0 mm 1 mps 753 mmHg 43%
    10:00 +19°C° 0 mm 2 mps 753 mmHg 39%
    11:00 +20°C° 0 mm 2 mps 753 mmHg 35%
    12:00 +21°C° 0 mm 2 mps 753 mmHg 35%
    13:00 +21°C° 0 mm 2 mps 753 mmHg 34%
    14:00 +23°C° 0 mm 2 mps 753 mmHg 34%
    15:00 +21°C° 0 mm 2 mps 753 mmHg 37%
    16:00 +21°C° 0 mm 2 mps 752 mmHg 39%
    17:00 +21°C° 0 mm 2 mps 752 mmHg 42%
    18:00 +19°C° 0 mm 2 mps 752 mmHg 51%
    19:00 +16°C° 0 mm 2 mps 752 mmHg 60%
    20:00 +14°C° 0 mm 1 mps 752 mmHg 69%
    21:00 +13°C° 0 mm 1 mps 752 mmHg 72%
    22:00 +12°C° 0 mm 1 mps 753 mmHg 75%
    23:00 +11°C° 0 mm 1 mps 753 mmHg 78%

    Day after tomorrow, 22 May, Tuesday

    Time Temperature Precipitation Wind Pressure Humidity
    00:00 +11°C° 0 mm 1 mps 753 mmHg 79%
    01:00 +10°C° 0 mm 1 mps 753 mmHg 81%
    02:00 +10°C° 0 mm 1 mps 753 mmHg 83%
    03:00 +9°C° 0 mm 2 mps 753 mmHg 81%
    04:00 +10°C° 0 mm 2 mps 753 mmHg 79%
    05:00 +10°C° 0 mm 2 mps 753 mmHg 77%
    06:00 +12°C° 0 mm 3 mps 752 mmHg 67%
    07:00 +14°C° 0 mm 3 mps 752 mmHg 58%
    08:00 +17°C° 0 mm 4 mps 752 mmHg 49%
    09:00 +18°C° 0.1 mm 4 mps 752 mmHg 49%
    10:00 +18°C° 0.1 mm 4 mps 751 mmHg 49%
    11:00 +18°C° 0.1 mm 4 mps 751 mmHg 50%
    12:00 +18°C° 0 mm 4 mps 750 mmHg 51%
    13:00 +18°C° 0 mm 4 mps 750 mmHg 53%
    14:00 +18°C° 0 mm 3 mps 750 mmHg 54%
    15:00 +17°C° 0.2 mm 3 mps 749 mmHg 61%
    16:00 +17°C° 0.2 mm 3 mps 749 mmHg 69%
    17:00 +16°C° 0.2 mm 2 mps 748 mmHg 76%
    18:00 +15°C° 0.2 mm 2 mps 748 mmHg 82%
    19:00 +15°C° 0.2 mm 2 mps 748 mmHg 87%
    20:00 +14°C° 0.2 mm 2 mps 747 mmHg 93%
    21:00 +14°C° 0 mm 2 mps 747 mmHg 94%
    22:00 +13°C° 0 mm 2 mps 747 mmHg 96%
    23:00 +13°C° 0 mm 2 mps 747 mmHg 97%

    23 May, Wednesday

    Time Temperature Precipitation Wind Pressure Humidity
    00:00 +13°C° 0 mm 2 mps 747 mmHg 97%
    01:00 +12°C° 0 mm 2 mps 747 mmHg 97%
    02:00 +12°C° 0 mm 2 mps 747 mmHg 97%
    03:00 +12°C° 0 mm 2 mps 747 mmHg 96%
    04:00 +11°C° 0 mm 3 mps 747 mmHg 95%
    05:00 +11°C° 0 mm 3 mps 747 mmHg 95%
    06:00 +12°C° 0 mm 3 mps 747 mmHg 89%
    07:00 +13°C° 0 mm 3 mps 748 mmHg 84%
    08:00 +14°C° 0 mm 3 mps 748 mmHg 78%
    09:00 +17°C° 0 mm 3 mps 748 mmHg 69%
    10:00 +19°C° 0 mm 3 mps 748 mmHg 61%
    11:00 +21°C° 0 mm 3 mps 748 mmHg 52%
    12:00 +21°C° 0.3 mm 3 mps 747 mmHg 54%
    13:00 +21°C° 0.3 mm 3 mps 747 mmHg 56%
    14:00 +21°C° 0.3 mm 3 mps 747 mmHg 58%
    15:00 +20°C° 0.8 mm 2 mps 747 mmHg 66%
    16:00 +19°C° 0.8 mm 2 mps 746 mmHg 75%
    17:00 +17°C° 0.8 mm 2 mps 746 mmHg 83%
    18:00 +16°C° 0.1 mm 1 mps 746 mmHg 86%
    19:00 +15°C° 0.1 mm 1 mps 746 mmHg 89%
    20:00 +13°C° 0.1 mm 0 mps 746 mmHg 92%
    21:00 +12°C° 0.9 mm 0 mps 746 mmHg 93%
    22:00 +12°C° 0.9 mm 0 mps 746 mmHg 94%
    23:00 +11°C° 0.9 mm 0 mps 746 mmHg 95%

    24 May, Thursday

    Time Temperature Precipitation Wind Pressure Humidity
    00:00 +12°C° 0.1 mm 1 mps 746 mmHg 96%
    01:00 +11°C° 0.1 mm 1 mps 746 mmHg 96%
    02:00 +11°C° 0.1 mm 1 mps 746 mmHg 96%
    03:00 +11°C° 0 mm 1 mps 746 mmHg 96%
    04:00 +12°C° 0 mm 1 mps 747 mmHg 96%
    05:00 +12°C° 0 mm 2 mps 747 mmHg 96%
    06:00 +13°C° 0 mm 2 mps 747 mmHg 92%
    07:00 +15°C° 0 mm 2 mps 748 mmHg 88%
    08:00 +16°C° 0 mm 3 mps 748 mmHg 84%
    09:00 +16°C° 0.1 mm 3 mps 748 mmHg 82%
    10:00 +14°C° 0.1 mm 4 mps 749 mmHg 81%
    11:00 +14°C° 0.1 mm 4 mps 749 mmHg 80%
    12:00 +15°C° 0 mm 4 mps 749 mmHg 74%
    13:00 +15°C° 0 mm 5 mps 749 mmHg 69%
    14:00 +16°C° 0 mm 5 mps 750 mmHg 63%
    15:00 +17°C° 0 mm 4 mps 750 mmHg 61%
    16:00 +17°C° 0 mm 4 mps 750 mmHg 59%
    17:00 +17°C° 0 mm 4 mps 751 mmHg 58%
    18:00 +14°C° 0 mm 4 mps 751 mmHg 61%
    19:00 +13°C° 0 mm 3 mps 752 mmHg 64%
    20:00 +11°C° 0 mm 3 mps 752 mmHg 67%
    21:00 +10°C° 0 mm 3 mps 752 mmHg 63%
    22:00 +9°C° 0 mm 3 mps 753 mmHg 60%
    23:00 +8°C° 0 mm 3 mps 753 mmHg 57%

    25 May, Friday

    Time Temperature Precipitation Wind Pressure Humidity
    00:00 +8°C° 0 mm 3 mps 754 mmHg 58%
    01:00 +7°C° 0 mm 3 mps 754 mmHg 60%
    02:00 +5°C° 0 mm 3 mps 754 mmHg 61%
    03:00 +5°C° 0 mm 3 mps 755 mmHg 61%
    04:00 +5°C° 0 mm 3 mps 755 mmHg 61%
    05:00 +5°C° 0 mm 4 mps 756 mmHg 61%
    06:00 +7°C° 0 mm 4 mps 756 mmHg 56%
    07:00 +8°C° 0 mm 4 mps 756 mmHg 51%
    08:00 +11°C° 0 mm 4 mps 757 mmHg 46%
    09:00 +12°C° 0 mm 4 mps 757 mmHg 43%
    10:00 +13°C° 0 mm 4 mps 757 mmHg 40%
    11:00 +14°C° 0 mm 4 mps 757 mmHg 38%
    12:00 +15°C° 0 mm 4 mps 757 mmHg 37%
    13:00 +17°C° 0 mm 4 mps 756 mmHg 36%
    14:00 +17°C° 0 mm 4 mps 756 mmHg 35%
    15:00 +17°C° 0 mm 3 mps 756 mmHg 37%
    16:00 +17°C° 0 mm 3 mps 756 mmHg 38%
    17:00 +16°C° 0 mm 3 mps 756 mmHg 40%
    18:00 +13°C° 0 mm 3 mps 756 mmHg 48%
    19:00 +13°C° 0 mm 2 mps 756 mmHg 56%
    20:00 +10°C° 0 mm 2 mps 756 mmHg 64%
    21:00 +8°C° 0 mm 2 mps 757 mmHg 66%
    22:00 +7°C° 0 mm 2 mps 757 mmHg 68%
    23:00 +7°C° 0 mm 1 mps 757 mmHg 70%
    Show more